2021-105B (49465 NORAD) Tracking and Keplerian Element Data

This shows tracking and keplerian element data for the satellite.

Feedback or suggestion? Click here.




ElementValue
Catalog49465
Name2021-105B
Epoch Orbit3
Epoch Day320.666831
Epoch Year2021
RAAN145.2968
Inclination75.0016
Eccentricity4.42E-05
Argument of Perigee271.4266
Mean Anonmoly88.6814
Mean Motion14.66459331
Decay Rate0.00112935
L11 49465U 21105B 21320.66683100 .00112935 00000+0 20058-1 0 9991
L22 49465 75.0016 145.2968 0000442 271.4266 88.6814 14.66459331 32

Live tracking and technical data element details for 2021-105B (NORAD 49465). 2021-105B can be tracked NOW for your location showing map with azimuth and elevation plus other details from your city location.

Track the satellite on the map from your city or location and see movement details for azimuth, elevation, latitude, longitude, range, height, and movement on the map or in text.







IsCatalogInMostPopularTable: catalog: 49465, numindb: 1
Update: records affected: 1



GetName: 49465 2021-105B

Hit Count: updated at: Wed, 08 Dec 2021 16:39:45 GMT